Location: Sternwarte Stuttgart
(48.7670°N, 9.1830°E)
Time: 18:06:34
(UTC+02:00)

ISS - All Passes

Search period start: 26 July 2016 00:00
Search period end: 05 August 2016 00:00
Orbit: 401 x 404 km, 51.6° (Epoch: 26 July)

Date Brightness Start Highest point End Pass type
(mag) Time Alt. Az. Time Alt. Az. Time Alt. Az.
26 Jul - 01:25:14 10° W 01:28:26 52° N 01:31:39 10° ENE visible
26 Jul - 03:01:55 10° WNW 03:05:09 60° NNE 03:08:23 10° E visible
26 Jul - 04:38:26 10° WNW 04:41:31 40° SSW 04:44:37 10° SE visible
26 Jul - 22:56:01 10° SW 22:59:03 37° SSE 23:02:07 10° ENE visible
27 Jul - 00:32:10 10° W 00:35:25 62° NNW 00:38:39 10° ENE visible
27 Jul - 02:08:55 10° WNW 02:12:07 51° N 02:15:19 10° E visible
27 Jul - 03:45:24 10° WNW 03:48:39 65° SSW 03:51:53 10° SE visible
27 Jul - 05:22:55 10° WSW 05:24:34 13° SW 05:26:13 10° SSW daylight
27 Jul - 22:03:36 10° SSW 22:06:15 23° SE 22:08:54 10° E visible
27 Jul - 23:39:09 10° WSW 23:42:24 83° NNW 23:45:41 10° ENE visible
28 Jul - 01:15:52 10° WNW 01:19:03 48° N 01:22:14 10° ENE visible
28 Jul - 02:52:25 10° WNW 02:55:42 86° NNE 02:58:57 10° ESE visible
28 Jul - 04:29:14 10° W 04:31:50 22° SW 04:34:25 10° SSE visible
28 Jul - 21:11:41 10° S 21:13:30 14° SE 21:15:19 10° ESE daylight
28 Jul - 22:46:12 10° WSW 22:49:26 68° SSE 22:52:41 10° ENE visible
29 Jul - 00:22:48 10° W 00:25:59 50° N 00:29:11 10° ENE visible
29 Jul - 01:59:26 10° WNW 02:02:41 64° NNE 02:05:56 10° E visible
29 Jul - 03:35:59 10° W 03:39:01 35° SSW 03:42:01 10° SE night (unlit)
29 Jul - 21:53:24 10° SW 21:56:31 43° SSE 21:59:38 10° ENE visible
29 Jul - 23:29:41 10° W 23:32:55 59° NNW 23:36:08 10° ENE visible
30 Jul - 01:06:25 10° WNW 01:09:37 53° N 01:12:50 10° E visible
30 Jul - 02:42:54 10° WNW 02:46:07 57° SSW 02:49:19 10° SE visible
30 Jul - 04:20:50 10° WSW 04:21:58 11° SW 04:23:06 10° SSW night (unlit)
30 Jul - 21:00:52 10° SSW 21:03:39 26° SE 21:06:27 10° E daylight
30 Jul - 22:36:36 10° WSW 22:39:52 76° NNW 22:43:08 10° ENE visible
31 Jul - 00:13:20 10° WNW 00:16:32 48° N 00:19:43 10° ENE visible
31 Jul - 01:49:52 10° WNW 01:53:08 86° SSW 01:56:23 10° ESE visible
31 Jul - 03:26:48 10° W 03:29:13 19° SW 03:31:37 10° S night (unlit)
31 Jul - 20:08:43 10° S 20:10:50 16° SE 20:12:58 10° E daylight
31 Jul - 21:43:35 10° WSW 21:46:50 76° SSE 21:50:06 10° ENE visible
31 Jul - 23:20:13 10° W 23:23:24 49° N 23:26:36 10° ENE visible
01 Aug - 00:56:51 10° WNW 01:00:06 69° NNE 01:03:21 10° E visible
01 Aug - 02:33:26 10° W 02:36:22 31° SW 02:39:18 10° SSE night (unlit)
01 Aug - 20:50:42 10° SW 20:53:52 49° SSE 20:57:02 10° ENE daylight
01 Aug - 22:27:04 10° W 22:30:18 56° N 22:33:32 10° ENE visible
02 Aug - 00:03:47 10° WNW 00:07:00 55° N 00:10:13 10° E visible
02 Aug - 01:40:16 10° WNW 01:43:28 50° SSW 01:46:37 10° SE visible
02 Aug - 19:58:02 10° SSW 20:00:56 30° SE 20:03:51 10° E daylight
02 Aug - 21:33:56 10° W 21:37:12 70° NNW 21:40:28 10° ENE visible
02 Aug - 23:10:41 10° WNW 23:13:52 49° N 23:17:04 10° E visible
03 Aug - 00:47:11 10° WNW 00:50:27 78° SSW 00:53:43 10° ESE visible
03 Aug - 02:24:17 10° W 02:26:28 17° SW 02:28:39 10° S night (unlit)
03 Aug - 19:05:43 10° S 19:08:04 19° SE 19:10:25 10° E daylight
03 Aug - 20:40:51 10° WSW 20:44:07 84° SSE 20:47:24 10° ENE daylight
03 Aug - 22:17:32 10° W 22:20:43 48° N 22:23:54 10° ENE visible
03 Aug - 23:54:07 10° WNW 23:57:23 75° NNE 00:00:39 10° ESE visible
04 Aug - 01:30:47 10° W 01:33:37 27° SW 01:36:25 10° SSE visible
04 Aug - 18:14:17 10° SSE 18:15:15 11° SE 18:16:13 10° ESE daylight
04 Aug - 19:47:54 10° SW 19:51:05 55° SSE 19:54:18 10° ENE daylight
04 Aug - 21:24:21 10° W 21:27:34 53° N 21:30:47 10° ENE daylight
04 Aug - 23:01:02 10° WNW 23:04:16 58° N 23:07:29 10° E visible
